| time (UTC) | temp F | wind direction | speed MPH | gust MPH | rain 1hr in | rain 24hr in | rain mn in | humidity % | barometer mb |
| 20260506155450 | 58 | 78 | 1.0 | 3.0 | 0.00 | 0.00 | 0.00 | 90 | 1020.1 |
| 20260506153622 | 57 | 86 | 2.0 | 3.0 | 0.00 | 0.00 | 0.00 | 92 | 1020.1 |
| 20260506153120 | 57 | 68 | 2.0 | 3.0 | 0.00 | 0.00 | 0.00 | 92 | 1020.0 |
| 20260506152617 | 58 | 102 | 2.0 | 3.0 | 0.00 | 0.00 | 0.00 | 92 | 1020.0 |
| 20260506152115 | 57 | 309 | 0.0 | 1.0 | 0.00 | 0.00 | 0.00 | 92 | 1020.1 |
| 20260506151613 | 57 | 89 | 0.0 | 2.0 | 0.00 | 0.00 | 0.00 | 93 | 1019.9 |
| 20260506151109 | 57 | 56 | 2.0 | 3.0 | 0.00 | 0.00 | 0.00 | 93 | 1019.9 |
| 20260506150606 | 57 | 78 | 1.0 | 2.0 | 0.00 | 0.00 | 0.00 | 94 | 1020.1 |
| 20260506145600 | 57 | 136 | 0.0 | 1.0 | 0.00 | 0.00 | 0.00 | 95 | 1020.0 |
| 20260506145057 | 57 | 131 | 0.0 | 2.0 | 0.00 | 0.00 | 0.00 | 95 | 1020.0 |
| 20260506144554 | 56 | 85 | 1.0 | 2.0 | 0.00 | 0.00 | 0.00 | 95 | 1019.9 |
| 20260506144051 | 56 | 101 | 1.0 | 2.0 | 0.00 | 0.00 | 0.00 | 95 | 1020.1 |
| 20260506143549 | 56 | 63 | 0.0 | 2.0 | 0.00 | 0.00 | 0.00 | 95 | 1020.0 |
| 20260506143047 | 56 | 113 | 0.0 | 2.0 | 0.00 | 0.00 | 0.00 | 96 | 1019.9 |
| 20260506142544 | 56 | 49 | 0.0 | 2.0 | 0.00 | 0.00 | 0.00 | 96 | 1019.9 |
| 20260506142042 | 56 | 77 | 2.0 | 2.0 | 0.00 | 0.00 | 0.00 | 95 | 1019.8 |
| 20260506141539 | 56 | 142 | 0.0 | 1.0 | 0.00 | 0.00 | 0.00 | 95 | 1019.6 |
| 20260506141038 | 56 | 60 | 0.0 | 2.0 | 0.00 | 0.00 | 0.00 | 95 | 1019.7 |
| 20260506140535 | 56 | 67 | 1.0 | 2.0 | 0.00 | 0.00 | 0.00 | 95 | 1019.6 |
| 20260506140032 | 56 | 62 | 2.0 | 3.0 | 0.00 | 0.00 | 0.00 | 95 | 1019.5 |
| 20260506135529 | 56 | 64 | 1.0 | 2.0 | 0.00 | 0.00 | 0.00 | 95 | 1019.5 |
| 20260506135025 | 56 | 50 | 0.0 | 2.0 | 0.00 | 0.00 | 0.00 | 95 | 1019.4 |
| 20260506134521 | 56 | 49 | 0.0 | 2.0 | 0.00 | 0.00 | 0.00 | 95 | 1019.3 |
| 20260506134018 | 56 | 33 | 2.0 | 2.0 | 0.00 | 0.00 | 0.00 | 95 | 1019.3 |
| 20260506133515 | 56 | 341 | 0.0 | 2.0 | 0.00 | 0.00 | 0.00 | 95 | 1019.3 |
| 20260506133012 | 56 | 157 | 0.0 | 1.0 | 0.00 | 0.00 | 0.00 | 94 | 1019.2 |
| 20260506132509 | 56 | 29 | 0.0 | 1.0 | 0.00 | 0.00 | 0.00 | 94 | 1019.2 |
| 20260506132006 | 56 | 129 | 0.0 | 2.0 | 0.00 | 0.00 | 0.00 | 94 | 1019.2 |
| 20260506131503 | 56 | 68 | 2.0 | 3.0 | 0.00 | 0.00 | 0.00 | 93 | 1019.0 |
| 20260506130954 | 55 | 314 | 0.0 | 1.0 | 0.00 | 0.00 | 0.00 | 93 | 1019.2 |
| 20260506130450 | 55 | 299 | 1.0 | 3.0 | 0.00 | 0.00 | 0.00 | 94 | 1019.0 |
| 20260506125948 | 55 | 297 | 0.0 | 1.0 | 0.00 | 0.00 | 0.00 | 94 | 1019.1 |
| 20260506125446 | 55 | 15 | 0.0 | 1.0 | 0.00 | 0.00 | 0.00 | 94 | 1018.9 |
| 20260506124944 | 55 | 349 | 1.0 | 2.0 | 0.00 | 0.00 | 0.00 | 94 | 1018.9 |
| 20260506124441 | 55 | 339 | 0.0 | 2.0 | 0.00 | 0.00 | 0.00 | 94 | 1018.9 |
| 20260506123939 | 55 | 13 | 0.0 | 0.0 | 0.00 | 0.00 | 0.00 | 94 | 1018.5 |
| 20260506123438 | 55 | 7 | 1.0 | 2.0 | 0.00 | 0.00 | 0.00 | 94 | 1018.8 |
| 20260506122934 | 56 | 62 | 0.0 | 1.0 | 0.00 | 0.00 | 0.00 | 94 | 1018.8 |
| 20260506122431 | 55 | 75 | 0.0 | 2.0 | 0.00 | 0.00 | 0.00 | 94 | 1018.8 |
| 20260506121930 | 55 | 48 | 1.0 | 2.0 | 0.00 | 0.00 | 0.00 | 94 | 1018.8 |
| 20260506121426 | 55 | 89 | 1.0 | 3.0 | 0.00 | 0.00 | 0.00 | 94 | 1018.7 |
| 20260506120923 | 55 | 60 | 1.0 | 3.0 | 0.00 | 0.00 | 0.00 | 94 | 1018.8 |
| 20260506120421 | 55 | 20 | 2.0 | 4.0 | 0.00 | 0.00 | 0.00 | 94 | 1018.7 |
| 20260506115918 | 56 | 89 | 1.0 | 2.0 | 0.00 | 0.00 | 0.00 | 94 | 1018.8 |
| 20260506115416 | 56 | 104 | 0.0 | 1.0 | 0.00 | 0.00 | 0.00 | 93 | 1018.8 |
| 20260506114914 | 56 | 55 | 2.0 | 3.0 | 0.00 | 0.00 | 0.00 | 93 | 1018.7 |
| 20260506114411 | 56 | 73 | 0.0 | 2.0 | 0.00 | 0.00 | 0.00 | 93 | 1018.5 |
| 20260506113910 | 56 | 135 | 0.0 | 1.0 | 0.00 | 0.00 | 0.00 | 93 | 1018.5 |
| 20260506113407 | 56 | 306 | 0.0 | 2.0 | 0.00 | 0.00 | 0.00 | 93 | 1018.5 |
| 20260506112903 | 56 | 277 | 1.0 | 2.0 | 0.00 | 0.00 | 0.00 | 93 | 1018.7 |
| 20260506112401 | 56 | 278 | 0.0 | 2.0 | 0.00 | 0.00 | 0.00 | 93 | 1018.7 |
| 20260506111858 | 56 | 331 | 0.0 | 1.0 | 0.00 | 0.00 | 0.00 | 93 | 1018.3 |
| 20260506111356 | 56 | 282 | 1.0 | 2.0 | 0.00 | 0.00 | 0.00 | 93 | 1018.4 |
| 20260506110853 | 56 | 292 | 1.0 | 2.0 | 0.00 | 0.00 | 0.00 | 93 | 1018.5 |
| 20260506110350 | 56 | 56 | 0.0 | 2.0 | 0.00 | 0.00 | 0.00 | 92 | 1018.5 |
| 20260506105847 | 56 | 80 | 2.0 | 2.0 | 0.00 | 0.00 | 0.00 | 92 | 1018.4 |
| 20260506105343 | 56 | 77 | 2.0 | 3.0 | 0.00 | 0.00 | 0.00 | 92 | 1018.4 |
| 20260506104841 | 56 | 41 | 1.0 | 3.0 | 0.00 | 0.00 | 0.00 | 92 | 1018.4 |
| 20260506104339 | 56 | 52 | 0.0 | 2.0 | 0.00 | 0.00 | 0.00 | 92 | 1018.3 |
| 20260506103836 | 56 | 6 | 0.0 | 1.0 | 0.00 | 0.00 | 0.00 | 92 | 1018.4 |
| 20260506103333 | 56 | 352 | 0.0 | 1.0 | 0.00 | 0.00 | 0.00 | 92 | 1018.2 |
| 20260506102831 | 56 | 129 | 0.0 | 1.0 | 0.00 | 0.00 | 0.00 | 92 | 1018.2 |
| 20260506102328 | 56 | 255 | 0.0 | 2.0 | 0.00 | 0.00 | 0.00 | 91 | 1018.2 |
| 20260506101826 | 56 | 268 | 1.0 | 3.0 | 0.00 | 0.00 | 0.00 | 91 | 1018.3 |
| 20260506101321 | 56 | 273 | 2.0 | 3.0 | 0.00 | 0.00 | 0.00 | 92 | 1018.3 |
| 20260506100820 | 56 | 315 | 0.0 | 2.0 | 0.00 | 0.00 | 0.00 | 92 | 1018.1 |
| 20260506100318 | 56 | 22 | 0.0 | 1.0 | 0.00 | 0.00 | 0.00 | 92 | 1018.2 |
| 20260506095816 | 56 | 343 | 0.0 | 2.0 | 0.00 | 0.00 | 0.00 | 92 | 1018.2 |
| 20260506095313 | 56 | 50 | 0.0 | 0.0 | 0.00 | 0.00 | 0.00 | 92 | 1018.2 |
| 20260506094809 | 56 | 50 | 0.0 | 1.0 | 0.00 | 0.00 | 0.00 | 92 | 1018.1 |
| 20260506094308 | 56 | 40 | 1.0 | 1.0 | 0.00 | 0.00 | 0.00 | 92 | 1018.1 |
| 20260506093806 | 56 | 66 | 0.0 | 1.0 | 0.00 | 0.00 | 0.00 | 91 | 1018.3 |
| 20260506093302 | 56 | 59 | 1.0 | 2.0 | 0.00 | 0.00 | 0.00 | 91 | 1018.3 |
| 20260506092801 | 56 | 35 | 2.0 | 2.0 | 0.00 | 0.00 | 0.00 | 91 | 1018.1 |
| 20260506092258 | 56 | 46 | 2.0 | 3.0 | 0.00 | 0.00 | 0.00 | 91 | 1018.3 |
| 20260506091755 | 56 | 33 | 1.0 | 2.0 | 0.00 | 0.00 | 0.00 | 91 | 1018.1 |
| 20260506091253 | 56 | 37 | 0.0 | 1.0 | 0.00 | 0.00 | 0.00 | 91 | 1018.1 |
| 20260506090750 | 56 | 37 | 0.0 | 1.0 | 0.00 | 0.00 | 0.00 | 91 | 1018.2 |
| 20260506090247 | 56 | 319 | 0.0 | 3.0 | 0.00 | 0.00 | 0.00 | 91 | 1018.0 |
| 20260506085744 | 56 | 330 | 0.0 | 1.0 | 0.00 | 0.00 | 0.00 | 91 | 1018.2 |
| 20260506085240 | 56 | 49 | 0.0 | 2.0 | 0.00 | 0.00 | 0.00 | 90 | 1018.3 |
| 20260506084737 | 56 | 43 | 2.0 | 3.0 | 0.00 | 0.00 | 0.00 | 90 | 1018.3 |
| 20260506084233 | 57 | 44 | 2.0 | 3.0 | 0.00 | 0.00 | 0.00 | 89 | 1018.3 |
| 20260506083730 | 57 | 39 | 2.0 | 3.0 | 0.00 | 0.00 | 0.00 | 89 | 1018.3 |
| 20260506083228 | 57 | 31 | 2.0 | 2.0 | 0.00 | 0.00 | 0.00 | 88 | 1018.3 |
| 20260506082725 | 57 | 104 | 0.0 | 1.0 | 0.00 | 0.00 | 0.00 | 88 | 1018.2 |
| 20260506082220 | 57 | 89 | 1.0 | 2.0 | 0.00 | 0.00 | 0.00 | 87 | 1018.3 |
| 20260506081718 | 57 | 227 | 0.0 | 3.0 | 0.00 | 0.00 | 0.00 | 87 | 1018.3 |
| 20260506081215 | 57 | 242 | 2.0 | 4.0 | 0.00 | 0.00 | 0.00 | 87 | 1018.3 |
| 20260506080714 | 57 | 266 | 2.0 | 4.0 | 0.00 | 0.00 | 0.00 | 88 | 1018.3 |
| 20260506080210 | 57 | 193 | 2.0 | 5.0 | 0.00 | 0.00 | 0.00 | 87 | 1018.1 |
| 20260506073154 | 57 | 174 | 1.0 | 3.0 | 0.00 | 0.00 | 0.00 | 87 | 1017.9 |
| 20260506072650 | 57 | 147 | 1.0 | 2.0 | 0.00 | 0.00 | 0.00 | 88 | 1017.9 |
| 20260506072148 | 57 | 145 | 3.0 | 6.0 | 0.00 | 0.00 | 0.00 | 86 | 1017.8 |
| 20260506071646 | 57 | 195 | 2.0 | 6.0 | 0.00 | 0.00 | 0.00 | 86 | 1017.7 |
| 20260506071143 | 57 | 216 | 3.0 | 3.0 | 0.00 | 0.00 | 0.00 | 87 | 1017.9 |
| 20260506070640 | 57 | 171 | 4.0 | 5.0 | 0.00 | 0.00 | 0.00 | 87 | 1017.6 |
| 20260506070137 | 57 | 201 | 2.0 | 4.0 | 0.00 | 0.00 | 0.00 | 87 | 1017.6 |
| 20260506062114 | 57 | 206 | 1.0 | 4.0 | 0.00 | 0.00 | 0.00 | 87 | 1017.5 |
| 20260506061610 | 57 | 211 | 1.0 | 3.0 | 0.00 | 0.00 | 0.00 | 87 | 1017.5 |
| 20260506061108 | 57 | 215 | 6.0 | 6.0 | 0.00 | 0.00 | 0.00 | 87 | 1017.5 |
| 20260506060606 | 57 | 245 | 2.0 | 5.0 | 0.00 | 0.00 | 0.00 | 87 | 1017.3 |
| 20260506051035 | 58 | 175 | 2.0 | 3.0 | 0.00 | 0.00 | 0.00 | 87 | 1017.1 |
| 20260506050532 | 58 | 160 | 3.0 | 5.0 | 0.00 | 0.00 | 0.00 | 86 | 1016.9 |
| 20260506045017 | 58 | 274 | 2.0 | 3.0 | 0.00 | 0.00 | 0.00 | 86 | 1016.5 |
| 20260506044515 | 58 | 225 | 5.0 | 5.0 | 0.00 | 0.00 | 0.00 | 86 | 1016.5 |
| 20260506044012 | 58 | 252 | 3.0 | 4.0 | 0.00 | 0.00 | 0.00 | 86 | 1016.4 |
| 20260506043509 | 58 | 269 | 2.0 | 3.0 | 0.00 | 0.00 | 0.00 | 87 | 1016.4 |
| 20260506043007 | 58 | 241 | 5.0 | 9.0 | 0.00 | 0.00 | 0.00 | 86 | 1016.2 |
| 20260506042506 | 58 | 228 | 3.0 | 7.0 | 0.00 | 0.00 | 0.00 | 87 | 1016.2 |
| 20260506042004 | 58 | 223 | 7.0 | 8.0 | 0.00 | 0.00 | 0.00 | 87 | 1016.3 |
| 20260506041502 | 58 | 268 | 4.0 | 8.0 | 0.00 | 0.00 | 0.00 | 87 | 1016.2 |
| 20260506040959 | 58 | 230 | 10.0 | 11.0 | 0.00 | 0.00 | 0.00 | 86 | 1016.1 |
| 20260506040456 | 58 | 222 | 9.0 | 10.0 | 0.00 | 0.00 | 0.00 | 86 | 1015.9 |
| 20260506035952 | 58 | 295 | 3.0 | 8.0 | 0.00 | 0.00 | 0.00 | 86 | 1015.8 |
| 20260506035450 | 58 | 228 | 9.0 | 11.0 | 0.00 | 0.00 | 0.00 | 86 | 1015.9 |
| 20260506034946 | 58 | 226 | 12.0 | 14.0 | 0.00 | 0.00 | 0.00 | 86 | 1015.5 |
| 20260506034443 | 58 | 256 | 5.0 | 11.0 | 0.00 | 0.00 | 0.00 | 85 | 1015.4 |
| 20260506033940 | 58 | 220 | 3.0 | 8.0 | 0.00 | 0.00 | 0.00 | 85 | 1015.3 |
| 20260506033438 | 58 | 229 | 3.0 | 9.0 | 0.00 | 0.00 | 0.00 | 86 | 1015.3 |
| 20260506032934 | 58 | 242 | 6.0 | 10.0 | 0.00 | 0.00 | 0.00 | 85 | 1015.1 |
| 20260506032431 | 58 | 268 | 6.0 | 11.0 | 0.00 | 0.00 | 0.00 | 85 | 1015.0 |
| 20260506031928 | 59 | 206 | 8.0 | 9.0 | 0.00 | 0.00 | 0.00 | 85 | 1015.0 |
| 20260506031425 | 59 | 237 | 4.0 | 12.0 | 0.00 | 0.00 | 0.00 | 85 | 1015.0 |
| 20260506030923 | 59 | 216 | 3.0 | 11.0 | 0.00 | 0.00 | 0.00 | 85 | 1014.9 |
| 20260506030421 | 59 | 191 | 7.0 | 11.0 | 0.00 | 0.00 | 0.00 | 84 | 1014.7 |
| 20260506025917 | 59 | 269 | 4.0 | 10.0 | 0.00 | 0.00 | 0.00 | 84 | 1014.5 |
| 20260506025414 | 59 | 251 | 8.0 | 9.0 | 0.00 | 0.00 | 0.00 | 84 | 1014.5 |
| 20260506024911 | 59 | 201 | 4.0 | 9.0 | 0.00 | 0.00 | 0.00 | 84 | 1014.8 |
| 20260506024408 | 59 | 253 | 5.0 | 11.0 | 0.00 | 0.00 | 0.00 | 84 | 1014.5 |
| 20260506023904 | 59 | 195 | 4.0 | 9.0 | 0.00 | 0.00 | 0.00 | 84 | 1014.3 |
| 20260506023401 | 59 | 193 | 5.0 | 8.0 | 0.00 | 0.00 | 0.00 | 84 | 1014.4 |
| 20260506022858 | 59 | 252 | 2.0 | 8.0 | 0.00 | 0.00 | 0.00 | 83 | 1014.1 |
| 20260506022356 | 59 | 171 | 3.0 | 10.0 | 0.00 | 0.00 | 0.00 | 84 | 1014.2 |
| 20260506021853 | 59 | 268 | 6.0 | 7.0 | 0.00 | 0.00 | 0.00 | 83 | 1014.1 |
| 20260506021349 | 59 | 210 | 7.0 | 9.0 | 0.00 | 0.00 | 0.00 | 83 | 1014.0 |
| 20260506020846 | 59 | 267 | 4.0 | 11.0 | 0.00 | 0.00 | 0.00 | 83 | 1014.0 |
| 20260506020345 | 59 | 265 | 8.0 | 11.0 | 0.00 | 0.00 | 0.00 | 82 | 1013.7 |
| 20260506015841 | 59 | 224 | 11.0 | 11.0 | 0.00 | 0.00 | 0.00 | 83 | 1013.9 |
| 20260506015339 | 59 | 226 | 8.0 | 9.0 | 0.00 | 0.00 | 0.00 | 83 | 1013.8 |
| 20260506014835 | 59 | 212 | 5.0 | 11.0 | 0.00 | 0.00 | 0.00 | 82 | 1013.7 |
| 20260506014332 | 59 | 221 | 3.0 | 9.0 | 0.00 | 0.00 | 0.00 | 83 | 1013.7 |
| 20260506013829 | 60 | 259 | 7.0 | 9.0 | 0.00 | 0.00 | 0.00 | 82 | 1013.7 |
| 20260506013326 | 60 | 313 | 2.0 | 10.0 | 0.00 | 0.00 | 0.00 | 82 | 1013.7 |
| 20260506012822 | 60 | 268 | 7.0 | 11.0 | 0.00 | 0.00 | 0.00 | 82 | 1013.5 |
| 20260506012320 | 60 | 281 | 7.0 | 12.0 | 0.00 | 0.00 | 0.00 | 82 | 1013.4 |
| 20260506011817 | 60 | 185 | 3.0 | 10.0 | 0.00 | 0.00 | 0.00 | 83 | 1013.4 |
| 20260506011313 | 60 | 272 | 8.0 | 13.0 | 0.00 | 0.00 | 0.00 | 82 | 1013.5 |
| 20260506010811 | 60 | 229 | 5.0 | 9.0 | 0.00 | 0.00 | 0.00 | 81 | 1013.3 |
| 20260506010309 | 60 | 265 | 8.0 | 13.0 | 0.00 | 0.00 | 0.00 | 82 | 1013.3 |
| 20260506005806 | 60 | 190 | 11.0 | 14.0 | 0.00 | 0.00 | 0.00 | 82 | 1013.1 |
| 20260506005305 | 60 | 258 | 6.0 | 9.0 | 0.00 | 0.00 | 0.00 | 82 | 1013.2 |
| 20260506004758 | 61 | 188 | 8.0 | 11.0 | 0.00 | 0.00 | 0.00 | 81 | 1013.2 |
| 20260506004256 | 61 | 285 | 5.0 | 12.0 | 0.00 | 0.00 | 0.00 | 81 | 1013.1 |
| 20260506003752 | 61 | 201 | 5.0 | 11.0 | 0.00 | 0.00 | 0.00 | 81 | 1013.0 |
| 20260506003249 | 61 | 192 | 5.0 | 10.0 | 0.00 | 0.00 | 0.00 | 80 | 1013.1 |
| 20260506002745 | 61 | 219 | 6.0 | 11.0 | 0.00 | 0.00 | 0.00 | 80 | 1013.0 |
| 20260506002241 | 61 | 191 | 5.0 | 13.0 | 0.00 | 0.00 | 0.00 | 80 | 1013.0 |
| 20260506001737 | 62 | 138 | 4.0 | 11.0 | 0.00 | 0.00 | 0.00 | 79 | 1013.1 |
| 20260506001235 | 63 | 193 | 6.0 | 14.0 | 0.00 | 0.00 | 0.00 | 77 | 1012.9 |
| 20260506000731 | 62 | 202 | 10.0 | 11.0 | 0.00 | 0.00 | 0.00 | 79 | 1013.0 |
| 20260506000229 | 62 | 137 | 3.0 | 12.0 | 0.00 | 0.00 | 0.00 | 79 | 1012.9 |
| 20260505235726 | 62 | 193 | 5.0 | 13.0 | 0.00 | 0.00 | 0.00 | 78 | 1012.8 |
| 20260505235224 | 62 | 265 | 10.0 | 17.0 | 0.00 | 0.00 | 0.00 | 78 | 1012.6 |
| 20260505234720 | 63 | 169 | 8.0 | 13.0 | 0.00 | 0.00 | 0.00 | 78 | 1012.9 |
| 20260505234218 | 63 | 190 | 2.0 | 15.0 | 0.00 | 0.00 | 0.00 | 78 | 1013.0 |
| 20260505233714 | 63 | 216 | 4.0 | 11.0 | 0.00 | 0.00 | 0.00 | 78 | 1012.9 |
| 20260505233212 | 63 | 181 | 6.0 | 12.0 | 0.00 | 0.00 | 0.00 | 77 | 1012.9 |
| 20260505232709 | 63 | 263 | 3.0 | 9.0 | 0.00 | 0.00 | 0.00 | 78 | 1012.9 |
| 20260505232206 | 63 | 177 | 9.0 | 11.0 | 0.00 | 0.00 | 0.00 | 77 | 1012.9 |
| 20260505231703 | 63 | 165 | 5.0 | 9.0 | 0.00 | 0.00 | 0.00 | 78 | 1012.9 |
| 20260505231202 | 63 | 186 | 5.0 | 16.0 | 0.00 | 0.00 | 0.00 | 79 | 1012.8 |
| 20260505230700 | 63 | 175 | 4.0 | 16.0 | 0.00 | 0.00 | 0.00 | 78 | 1013.1 |
| 20260505230157 | 63 | 184 | 6.0 | 11.0 | 0.00 | 0.00 | 0.00 | 78 | 1013.0 |
| 20260505225653 | 63 | 176 | 3.0 | 13.0 | 0.00 | 0.00 | 0.00 | 78 | 1012.9 |
| 20260505225149 | 63 | 208 | 6.0 | 14.0 | 0.00 | 0.00 | 0.00 | 78 | 1013.0 |
| 20260505224645 | 63 | 126 | 3.0 | 12.0 | 0.00 | 0.00 | 0.00 | 78 | 1012.9 |
| 20260505224144 | 63 | 194 | 13.0 | 13.0 | 0.00 | 0.00 | 0.00 | 77 | 1013.0 |
| 20260505223641 | 63 | 205 | 5.0 | 14.0 | 0.00 | 0.00 | 0.00 | 78 | 1013.1 |
| 20260505223136 | 63 | 182 | 9.0 | 15.0 | 0.00 | 0.00 | 0.00 | 78 | 1013.1 |
| 20260505222633 | 63 | 185 | 5.0 | 12.0 | 0.00 | 0.00 | 0.00 | 77 | 1013.1 |
| 20260505222129 | 64 | 186 | 10.0 | 11.0 | 0.00 | 0.00 | 0.00 | 77 | 1013.1 |
| 20260505221626 | 64 | 181 | 5.0 | 12.0 | 0.00 | 0.00 | 0.00 | 77 | 1013.1 |
| 20260505221123 | 63 | 172 | 6.0 | 14.0 | 0.00 | 0.00 | 0.00 | 78 | 1012.9 |
| 20260505220620 | 63 | 195 | 9.0 | 13.0 | 0.00 | 0.00 | 0.00 | 77 | 1013.0 |
| 20260505220118 | 64 | 184 | 5.0 | 13.0 | 0.00 | 0.00 | 0.00 | 77 | 1013.2 |
| 20260505215615 | 64 | 183 | 8.0 | 13.0 | 0.00 | 0.00 | 0.00 | 77 | 1013.2 |
| 20260505215113 | 64 | 201 | 4.0 | 13.0 | 0.00 | 0.00 | 0.00 | 77 | 1013.3 |
| 20260505214611 | 64 | 216 | 6.0 | 13.0 | 0.00 | 0.00 | 0.00 | 77 | 1013.2 |
| 20260505214108 | 63 | 185 | 7.0 | 11.0 | 0.00 | 0.00 | 0.00 | 79 | 1013.3 |
| 20260505213606 | 62 | 212 | 6.0 | 11.0 | 0.00 | 0.00 | 0.00 | 78 | 1013.2 |
| 20260505213102 | 63 | 218 | 3.0 | 12.0 | 0.00 | 0.00 | 0.00 | 77 | 1013.4 |
| 20260505212558 | 64 | 223 | 9.0 | 12.0 | 0.00 | 0.00 | 0.00 | 76 | 1013.3 |
| 20260505212056 | 64 | 194 | 8.0 | 12.0 | 0.00 | 0.00 | 0.00 | 78 | 1013.4 |
| 20260505211552 | 64 | 199 | 4.0 | 11.0 | 0.00 | 0.00 | 0.00 | 76 | 1013.2 |
| 20260505211049 | 64 | 181 | 7.0 | 11.0 | 0.00 | 0.00 | 0.00 | 76 | 1013.3 |
| 20260505210546 | 64 | 189 | 5.0 | 11.0 | 0.00 | 0.00 | 0.00 | 75 | 1013.2 |
| 20260505210043 | 64 | 201 | 4.0 | 11.0 | 0.00 | 0.00 | 0.00 | 76 | 1013.2 |
| 20260505205541 | 64 | 173 | 6.0 | 12.0 | 0.00 | 0.00 | 0.00 | 76 | 1013.3 |
| 20260505205038 | 64 | 181 | 11.0 | 13.0 | 0.00 | 0.00 | 0.00 | 76 | 1013.4 |
| 20260505204536 | 64 | 166 | 9.0 | 11.0 | 0.00 | 0.00 | 0.00 | 77 | 1013.3 |
| 20260505204033 | 64 | 170 | 7.0 | 9.0 | 0.00 | 0.00 | 0.00 | 76 | 1013.2 |
| 20260505203529 | 64 | 216 | 5.0 | 9.0 | 0.00 | 0.00 | 0.00 | 75 | 1013.4 |
| 20260505203026 | 64 | 217 | 7.0 | 10.0 | 0.00 | 0.00 | 0.00 | 75 | 1013.4 |
| 20260505202522 | 63 | 280 | 4.0 | 10.0 | 0.00 | 0.00 | 0.00 | 76 | 1013.3 |
| 20260505202018 | 63 | 169 | 5.0 | 10.0 | 0.00 | 0.00 | 0.00 | 78 | 1013.4 |
| 20260505201516 | 62 | 169 | 4.0 | 10.0 | 0.00 | 0.00 | 0.00 | 78 | 1013.5 |
| 20260505201013 | 62 | 186 | 5.0 | 11.0 | 0.00 | 0.00 | 0.00 | 79 | 1013.5 |
| 20260505200511 | 61 | 180 | 6.0 | 12.0 | 0.00 | 0.00 | 0.00 | 79 | 1013.7 |
| 20260505200008 | 62 | 172 | 3.0 | 10.0 | 0.00 | 0.00 | 0.00 | 80 | 1013.5 |
| 20260505195504 | 61 | 197 | 6.0 | 11.0 | 0.00 | 0.00 | 0.00 | 79 | 1013.7 |
| 20260505195001 | 61 | 168 | 4.0 | 10.0 | 0.00 | 0.00 | 0.00 | 80 | 1013.7 |
| 20260505194459 | 61 | 178 | 7.0 | 11.0 | 0.00 | 0.00 | 0.00 | 78 | 1013.6 |
| 20260505193958 | 61 | 192 | 6.0 | 10.0 | 0.00 | 0.00 | 0.00 | 79 | 1013.5 |
| 20260505193456 | 61 | 213 | 7.0 | 10.0 | 0.00 | 0.00 | 0.00 | 78 | 1013.6 |
| 20260505192953 | 61 | 221 | 2.0 | 8.0 | 0.00 | 0.00 | 0.00 | 78 | 1013.7 |
| 20260505192452 | 62 | 172 | 6.0 | 9.0 | 0.00 | 0.00 | 0.00 | 77 | 1013.5 |
| 20260505191949 | 62 | 178 | 6.0 | 7.0 | 0.00 | 0.00 | 0.00 | 78 | 1013.7 |
| 20260505191447 | 61 | 174 | 5.0 | 9.0 | 0.00 | 0.00 | 0.00 | 77 | 1013.8 |
| 20260505190944 | 61 | 196 | 2.0 | 11.0 | 0.00 | 0.00 | 0.00 | 77 | 1013.6 |
| 20260505190439 | 62 | 167 | 8.0 | 10.0 | 0.00 | 0.00 | 0.00 | 77 | 1013.6 |
| 20260505185935 | 62 | 173 | 7.0 | 9.0 | 0.00 | 0.00 | 0.00 | 76 | 1013.6 |
| 20260505185433 | 62 | 176 | 4.0 | 8.0 | 0.00 | 0.00 | 0.00 | 76 | 1013.5 |
| 20260505184928 | 61 | 274 | 4.0 | 7.0 | 0.00 | 0.00 | 0.00 | 76 | 1013.6 |
| 20260505184426 | 61 | 180 | 4.0 | 8.0 | 0.00 | 0.00 | 0.00 | 77 | 1013.7 |
| 20260505183922 | 61 | 159 | 3.0 | 6.0 | 0.00 | 0.00 | 0.00 | 78 | 1013.6 |
| 20260505183419 | 60 | 179 | 4.0 | 9.0 | 0.00 | 0.00 | 0.00 | 77 | 1013.7 |
| 20260505182916 | 60 | 162 | 4.0 | 8.0 | 0.00 | 0.00 | 0.00 | 78 | 1013.6 |
| 20260505182412 | 60 | 180 | 7.0 | 9.0 | 0.00 | 0.00 | 0.00 | 77 | 1013.7 |
| 20260505181909 | 60 | 163 | 5.0 | 13.0 | 0.00 | 0.00 | 0.00 | 79 | 1013.7 |
| 20260505181406 | 60 | 159 | 5.0 | 11.0 | 0.00 | 0.00 | 0.00 | 78 | 1013.6 |
| 20260505180903 | 59 | 189 | 2.0 | 11.0 | 0.00 | 0.00 | 0.00 | 77 | 1013.7 |
| 20260505180400 | 60 | 176 | 5.0 | 9.0 | 0.00 | 0.00 | 0.00 | 77 | 1013.8 |
| 20260505175856 | 59 | 197 | 2.0 | 9.0 | 0.00 | 0.00 | 0.00 | 75 | 1013.8 |
| 20260505175353 | 60 | 165 | 5.0 | 9.0 | 0.00 | 0.00 | 0.00 | 79 | 1013.8 |
| 20260505174849 | 59 | 173 | 4.0 | 8.0 | 0.00 | 0.00 | 0.00 | 79 | 1013.8 |
| 20260505174347 | 59 | 165 | 3.0 | 8.0 | 0.00 | 0.00 | 0.00 | 81 | 1013.6 |
| 20260505173842 | 58 | 154 | 4.0 | 7.0 | 0.00 | 0.00 | 0.00 | 79 | 1013.7 |
| 20260505173339 | 58 | 184 | 4.0 | 8.0 | 0.00 | 0.00 | 0.00 | 82 | 1013.8 |
| 20260505172836 | 58 | 152 | 2.0 | 7.0 | 0.00 | 0.00 | 0.00 | 84 | 1013.7 |
| 20260505172334 | 58 | 153 | 4.0 | 5.0 | 0.00 | 0.00 | 0.00 | 81 | 1013.5 |
| 20260505171833 | 58 | 157 | 4.0 | 7.0 | 0.00 | 0.00 | 0.00 | 82 | 1013.5 |
| 20260505171331 | 58 | 184 | 2.0 | 5.0 | 0.00 | 0.00 | 0.00 | 82 | 1013.8 |
| 20260505170827 | 57 | 175 | 4.0 | 6.0 | 0.00 | 0.00 | 0.00 | 81 | 1013.6 |
| 20260505170324 | 57 | 100 | 3.0 | 5.0 | 0.00 | 0.00 | 0.00 | 83 | 1013.7 |
| 20260505165819 | 58 | 151 | 3.0 | 5.0 | 0.00 | 0.00 | 0.00 | 82 | 1013.8 |
| 20260505165315 | 57 | 169 | 3.0 | 6.0 | 0.00 | 0.00 | 0.00 | 80 | 1013.7 |
| 20260505164810 | 57 | 155 | 2.0 | 3.0 | 0.00 | 0.00 | 0.00 | 81 | 1013.8 |
| 20260505164308 | 57 | 92 | 3.0 | 5.0 | 0.00 | 0.00 | 0.00 | 84 | 1013.6 |
| 20260505163806 | 57 | 75 | 3.0 | 7.0 | 0.00 | 0.00 | 0.00 | 83 | 1013.9 |
| 20260505163304 | 57 | 173 | 3.0 | 5.0 | 0.00 | 0.00 | 0.00 | 82 | 1013.8 |
| 20260505162802 | 56 | 89 | 0.0 | 3.0 | 0.00 | 0.00 | 0.00 | 83 | 1013.8 |
| 20260505162258 | 57 | 102 | 3.0 | 5.0 | 0.00 | 0.00 | 0.00 | 84 | 1013.8 |
| 20260505161755 | 56 | 141 | 1.0 | 5.0 | 0.00 | 0.00 | 0.00 | 86 | 1013.7 |
| 20260505161253 | 56 | 114 | 3.0 | 5.0 | 0.00 | 0.00 | 0.00 | 87 | 1013.8 |
| 20260505160750 | 55 | 23 | 2.0 | 3.0 | 0.00 | 0.00 | 0.00 | 88 | 1013.7 |
| 20260505160248 | 55 | 140 | 2.0 | 4.0 | 0.00 | 0.00 | 0.00 | 88 | 1013.9 |